Home   Weather   Washington County   Past weeks
Flag for USA

Past Weather in Washington County, Illinois, USA — Yesterday and Last 2 Weeks

Now
85 °F

Scattered clouds.


Feels Like: 92 °F
Forecast: 95 / 76 °F
Wind: 16 mph from Southwest

Location: Lambert-St. Louis International Airport

Current Time: Jul 18, 2019 at 10:24:17 am

Latest Report: Jul 18, 2019 at 9:51 am


Visibility: 10 mi

Pressure: 29.90 "Hg

Humidity: 68%

Dew Point: 73 °F

Location of Washington CountyLocation

Past Weather in Washington County — Graph

°F

Washington County Temperature Yesterday

Maximum temperature yesterday: 95 °F (at 3:51 pm)
Minimum temperature yesterday: 73 °F (at 5:59 pm)
Average temperature yesterday: 81 °F

High & Low Weather Summary for the Past Weeks

 TemperatureHumidityPressure
High95 °F (Jul 17, 3:51 pm)94% (Jul 15, 8:51 pm)30.11 "Hg (Jul 15, 8:51 pm)
Low70 °F (Jul 13, 5:51 am)36% (Jul 12, 3:51 pm)29.83 "Hg (Jul 3, 2:51 pm)
Average80 °F70%29.95 "Hg
* Reported Jul 3 8:51 am — Jul 18 8:51 am, Washington County. Weather by CustomWeather, © 2019

Note: Actual official high and low records may vary slightly from our data, if they occured in-between our weather recording intervals... More about our weather records

Advertising

Washington County Weather History for the Previous 24 Hours

Scroll right to see more
 ConditionsComfort  
Time TempWeatherWind HumidityBarometerVisibility
8:51 am
Thu, Jul 18
81 °FScattered clouds.8 mph72%29.92 "Hg10 mi
7:51 am78 °FBroken clouds.6 mph76%29.91 "Hg10 mi
6:51 am77 °FPartly sunny.9 mph77%29.90 "Hg10 mi
5:51 am76 °FBroken clouds.8 mph74%29.91 "Hg10 mi
4:51 am75 °FPartly cloudy.9 mph76%29.88 "Hg10 mi
3:51 am75 °FPartly cloudy.10 mph79%29.87 "Hg10 mi
2:51 am75 °FMostly cloudy.7 mph79%29.88 "Hg10 mi
1:51 am74 °FMostly cloudy.8 mph82%29.89 "Hg10 mi
12:51 am74 °FOvercast.9 mph85%29.88 "Hg10 mi
11:51 pm
Wed, Jul 17
76 °FMostly cloudy.9 mph80%29.88 "Hg10 mi
10:51 pm76 °FMostly cloudy.14 mph80%29.91 "Hg10 mi
10:06 pm74 °FMostly cloudy.12 mph88%29.97 "Hg10 mi
8:51 pm74 °FThunderstorms. Partly cloudy.9 mph88%29.94 "Hg9 mi
7:51 pm73 °FThunderstorms. Fog.5 mph90%30.01 "Hg6 mi
6:51 pm73 °FThunderstorms. More clouds than sun.13 mph88%30.01 "Hg7 mi
6:38 pm73 °FThunderstorms. Fog.17 mph88%30.06 "Hg4 mi
6:18 pm74 °FThunderstorms. Mostly cloudy.10 mph82%30.01 "Hg10 mi
6:09 pm73 °FThunderstorms. Mostly cloudy.18 mph84%29.99 "Hg4 mi
5:59 pm73 °FThunderstorms. Mostly cloudy.23 mph84%29.96 "Hg2 mi
5:40 pm92 °FStrong thunderstorms. Cloudy.30 mph52%29.97 "Hg10 mi
4:51 pm94 °FBroken clouds.7 mph49%29.89 "Hg10 mi
3:51 pm95 °FPassing clouds.7 mph44%29.89 "Hg10 mi
2:51 pm94 °FPassing clouds.6 mph48%29.90 "Hg10 mi
1:51 pm93 °FPassing clouds.3 mph47%29.91 "Hg10 mi
12:51 pm91 °FPassing clouds.3 mph56%29.94 "Hg10 mi
11:51 am89 °FPassing clouds.3 mph57%29.94 "Hg10 mi
10:51 am88 °FPassing clouds.N/A59%29.94 "Hg10 mi
Weather by CustomWeather, © 2019

See weather overview